Tracking 25198 objects as of 16-Jan-2022
HD Live streaming from Space Station
objects crossing your sky now

THOR ABLESTAR DEB

Track THOR ABLESTAR DEB now!
10-day predictions


NORAD ID: 20174
Int'l Code: 1961-015MK
Perigee: 797.6 km
Apogee: 1,536.2 km
Inclination: 67.1 °
Period: 108.6 minutes
Semi major axis: 7537 km
RCS: 0.0128 m2 (small)
Launch date: June 29, 1961
Source: United States (US)
Launch site: AIR FORCE EASTERN TEST RANGE (AFETR)

Note: This is SATELLITE DEBRIS
aabbcc
Your satellite tracking list
Your tracking list is empty




NASA's NSSDC Master Catalog

Two Line Element Set (TLE):
1 20174U 61015MK  22015.84384686  .00000235  00000-0  34872-3 0  9991
2 20174  67.0597 195.7428 0489965 139.3394 224.5343 13.26564436467638
Source of the keplerian elements: AFSPC